Theta_e
325 325 327 327 328 329 330 331 333 332 332 333 332 331 330 329 328 326 328 328 329 328 326 322 320 322 322 321 321 320 319 318 317 308 305 304 304 304 304 304 304 305 305
332 328 331 328 327 328 331 332 333 334 334 334 334 333 333 332 330 329 329 329 329 329 328 327 326 324 322 325 324 324 322 320 319 317 309 304 304 304 304 304 304 305 305
333 333 334 334 333 331 332 333 333 334 334 334 334 334 334 333 333 333 331 330 328 328 327 327 327 327 326 324 325 325 324 322 321 320 318 312 305 304 303 304 304 304 305
332 335 336 336 336 335 334 334 334 334 334 334 335 335 333 332 333 333 332 332 331 328 328 328 328 328 327 326 324 325 325 324 323 321 320 319 318 309 303 303 303 304 305
333 334 336 336 336 336 336 335 335 336 335 335 334 333 333 332 332 331 331 330 330 330 326 326 328 328 328 327 324 322 323 324 323 322 321 320 319 318 316 304 303 302 304
337 336 336 336 337 339 337 337 335 334 334 335 332 331 331 330 329 329 329 329 327 326 325 325 325 326 325 325 324 322 320 322 323 323 321 321 319 319 318 316 306 303 302
336 336 336 338 337 338 339 336 335 334 334 333 333 330 330 330 328 328 328 326 324 323 321 323 323 323 323 322 322 321 320 319 320 321 322 321 321 320 319 317 314 310 305
338 341 339 339 339 338 335 335 336 335 335 334 333 333 329 325 325 326 324 323 322 322 322 322 321 321 322 321 320 321 320 318 319 319 321 322 322 321 318 316 315 314 313
333 333 333 333 333 335 334 333 333 335 330 330 330 330 327 324 324 324 324 323 322 321 321 320 321 320 319 318 318 317 317 318 318 316 316 318 319 320 319 317 315 313 313
327 325 323 320 319 319 319 319 319 318 318 322 327 328 329 326 324 323 323 322 321 320 319 318 317 315 315 316 316 316 315 316 316 316 317 315 316 319 318 318 315 313 312
316 315 313 313 312 313 313 313 313 312 312 312 320 324 325 322 325 322 322 321 320 318 317 318 315 314 312 313 314 314 313 313 313 313 314 315 316 316 317 318 317 315 312
312 311 311 310 310 310 310 310 310 310 311 313 314 323 321 321 324 323 322 320 319 318 317 315 314 312 310 309 311 312 312 310 311 311 311 312 314 316 316 316 317 314 313
311 311 311 311 311 311 311 311 311 312 312 313 316 325 323 321 322 322 322 319 318 317 315 314 313 311 310 309 309 309 309 308 308 309 309 308 309 311 314 314 315 315 313
311 311 311 311 311 310 310 311 314 315 316 317 318 320 322 323 322 321 320 318 318 315 313 313 312 311 310 309 308 308 307 307 308 308 308 308 309 309 309 311 312 311 311
312 312 311 310 310 310 310 312 316 318 319 320 320 320 319 319 321 320 318 316 315 314 312 311 311 310 308 306 306 306 306 306 306 306 307 307 307 306 308 311 312 310 310
312 311 310 310 310 311 311 312 315 317 317 318 319 318 319 319 318 315 311 311 310 310 311 310 309 308 307 305 304 304 305 304 304 304 304 304 305 306 307 309 309 310 309
310 310 310 310 310 311 312 313 314 314 314 314 313 312 311 310 310 309 309 309 308 308 308 307 307 306 305 304 304 304 304 303 302 302 302 302 304 305 305 306 306 306 307
308 308 308 308 309 310 311 311 312 312 312 311 311 310 310 309 309 308 308 307 307 306 305 304 304 303 304 304 304 303 303 302 302 302 301 302 302 303 304 303 303 303 303
306 307 307 307 307 308 309 310 310 310 310 309 309 308 308 308 307 307 307 306 306 304 303 303 302 303 303 303 303 302 301 301 300 300 301 301 301 301 302 301 301 300 300
305 305 305 305 306 307 308 309 309 308 308 308 307 307 307 307 306 306 305 305 304 302 301 300 300 300 300 301 300 300 299 299 298 298 299 299 299 299 299 299 299 300 300
304 304 304 304 304 306 307 307 307 307 307 306 306 306 306 305 305 304 304 303 301 301 300 299 297 297 297 296 296 296 294 292 289 290 289 289 290 290 290 292 292 294 295
303 303 303 303 304 306 306 306 305 305 305 305 305 305 304 304 302 301 300 300 299 299 299 298 297 295 294 292 289 288 288 288 288 288 288 287 287 287 287 287 288 287 287
303 303 303 304 304 304 304 304 304 304 304 303 302 300 297 295 293 292 291 290 289 289 288 288 288 289 289 288 287 287 286 286 286 286 286 286 286 286 287 287 287 287 287
302 302 302 303 302 302 302 302 301 297 294 292 291 291 290 290 289 289 289 288 288 288 287 287 287 287 286 286 286 286 285 285 285 286 285 286 287 288 288 289 289 289 289
300 300 301 302 301 297 292 291 290 289 289 289 289 289 289 289 289 288 288 287 288 287 287 286 286 285 285 285 285 284 284 285 285 286 286 287 288 289 289 289 290 289 289
299 299 300 299 293 290 289 289 289 289 289 289 289 289 288 288 288 287 287 287 286 285 286 286 286 286 285 285 284 284 284 285 285 287 288 287 287 288 289 289 289 289 290
Wind_Speed
7 7 7 7 6 7 7 6 6 6 6 6 7 7 8 8 9 10 11 12 11 11 11 12 14 14 15 15 16 16 14 11 11 10 9 9 8 8 7 7 6 7 6
7 6 6 7 8 8 7 7 7 7 7 8 8 9 9 10 12 12 14 15 16 14 14 13 12 12 14 14 17 17 18 17 13 11 11 10 10 10 10 9 8 9 7
8 8 7 7 7 7 8 8 9 10 10 10 10 11 11 12 11 13 15 18 18 20 17 16 15 14 14 15 13 16 18 18 19 15 13 11 11 12 11 11 10 11 8
10 9 8 8 8 8 9 10 9 10 11 12 12 12 14 14 14 15 17 17 18 21 21 22 20 19 18 18 16 15 17 19 18 18 20 18 15 13 14 13 12 12 12
11 11 10 10 10 11 12 12 12 13 14 15 16 15 15 16 16 18 18 18 18 20 22 19 22 21 20 20 19 18 17 18 20 21 18 19 18 17 14 15 14 13 14
12 12 12 13 13 14 15 15 16 17 17 16 16 17 19 20 21 21 16 14 13 14 17 15 16 18 18 17 17 19 19 19 19 20 22 22 20 18 17 13 15 14 13
14 15 16 15 14 16 17 17 18 19 21 19 21 23 20 15 20 16 13 13 11 13 18 18 16 16 15 17 17 17 19 20 20 20 21 22 24 23 21 15 11 11 12
17 18 20 20 21 22 23 23 22 21 23 23 23 22 17 12 14 14 11 12 16 16 14 16 13 14 14 13 14 16 16 17 19 21 21 20 22 25 23 17 13 12 13
20 22 23 23 25 25 27 28 27 25 24 22 22 19 11 10 7 9 10 10 12 12 12 14 14 14 16 15 15 16 16 17 20 23 23 22 21 23 19 21 19 15 14
21 22 23 24 25 26 27 26 25 24 23 23 23 24 21 20 12 11 10 9 7 7 8 9 9 11 14 15 15 16 16 16 18 19 21 22 23 22 22 23 22 20 18
22 23 24 25 25 25 25 25 24 23 22 23 22 20 18 20 21 20 17 16 12 15 10 10 14 12 16 15 16 16 18 18 19 20 21 22 24 22 23 24 27 26 21
22 23 24 23 23 23 23 23 23 23 22 24 21 18 22 21 21 22 19 16 16 19 14 10 17 13 13 15 18 17 19 20 20 19 18 20 21 22 24 22 30 27 22
23 23 24 24 25 25 26 26 25 24 23 23 19 19 19 22 24 17 14 15 16 10 9 11 18 14 15 16 17 18 21 21 24 23 22 23 27 29 28 25 17 16 16
22 23 23 23 24 24 23 22 20 19 18 16 15 18 20 22 23 18 15 15 11 10 10 13 18 17 17 17 20 20 21 22 19 19 19 22 23 26 24 22 20 18 20
23 23 22 21 20 19 19 18 17 16 14 13 13 15 17 19 17 18 20 15 13 9 9 13 15 17 20 24 19 18 17 15 15 14 14 15 11 10 10 13 15 18 18
24 22 21 20 19 18 16 16 17 17 16 15 14 16 17 20 20 18 16 14 14 14 12 14 19 21 22 22 19 14 12 11 10 11 9 5 5 7 6 5 13 13 13
23 22 21 20 19 17 15 16 16 16 15 15 15 15 14 13 13 12 12 12 14 14 16 19 21 20 18 16 13 11 10 9 9 9 8 7 7 6 8 9 11 13 17
23 21 21 20 19 17 16 16 16 15 14 13 12 12 12 11 11 12 13 14 15 14 15 15 15 16 14 12 12 11 11 9 10 9 11 11 13 14 15 16 17 19 21
20 19 19 19 19 18 17 17 16 14 13 13 12 12 11 12 12 11 12 13 13 13 11 12 14 12 12 10 11 11 10 9 10 9 10 12 16 18 20 21 21 21 21
16 17 17 19 19 19 17 15 14 14 13 12 12 12 11 10 10 9 9 8 7 7 7 9 9 10 11 10 10 11 9 11 12 11 12 13 13 14 14 16 17 17 18
15 16 16 15 14 15 15 13 12 12 12 11 10 10 8 9 8 7 7 6 6 5 7 7 8 8 10 8 10 11 11 11 10 12 13 13 14 14 14 15 16 17 17
13 13 12 11 11 11 11 11 9 9 9 9 8 7 7 7 5 5 5 5 7 7 8 9 7 6 8 11 10 12 12 12 7 14 12 12 16 15 16 17 18 17 18
12 10 9 10 10 8 8 9 9 7 6 6 6 6 6 5 6 7 8 7 7 7 8 9 8 10 10 14 12 13 12 11 10 13 13 8 8 7 9 11 11 11 12
11 10 10 9 9 8 8 7 7 6 7 6 6 5 6 6 7 8 8 8 8 8 8 9 10 12 12 13 12 10 10 10 8 10 9 7 6 6 9 10 10 10 10
12 11 11 9 9 8 7 6 5 6 5 5 6 7 7 7 6 7 8 7 8 9 7 7 9 10 11 10 9 9 8 7 5 5 11 7 8 10 10 10 10 8 7
12 12 11 11 10 8 7 5 5 5 5 6 7 7 7 8 7 7 7 6 6 8 8 7 7 7 8 7 7 7 7 5 5 4 8 10 11 11 6 8 5 8 13
Wind_Direction
228 215 221 227 228 231 233 242 258 261 274 276 280 289 293 295 300 296 303 307 312 310 304 295 296 300 305 310 317 318 321 323 320 305 297 289 285 286 284 281 278 277 283
216 220 226 232 234 237 239 245 248 263 271 278 279 280 283 291 299 296 299 298 301 299 301 297 292 292 294 296 304 309 315 319 316 313 298 286 283 283 283 282 277 272 270
226 221 219 238 249 245 247 249 258 265 270 275 283 284 281 283 281 284 294 298 292 296 294 289 288 288 289 289 285 291 298 308 314 313 311 305 288 278 277 274 274 270 265
228 227 233 243 244 252 259 259 261 264 269 270 274 278 284 288 286 287 282 278 284 290 289 291 285 282 283 281 280 276 278 290 300 304 311 319 317 300 280 276 271 265 263
234 240 240 249 256 259 258 262 262 259 262 270 278 284 278 277 278 279 280 281 281 286 289 284 286 282 279 279 275 273 272 273 283 287 290 295 301 304 303 278 271 263 264
245 245 249 252 251 256 261 263 264 268 270 274 278 273 279 286 283 280 285 284 283 275 289 298 294 293 289 283 275 270 270 266 268 276 283 286 285 286 290 291 284 274 262
245 254 255 251 255 259 265 269 270 268 274 281 276 290 295 282 274 278 276 276 276 294 296 295 293 292 288 288 286 278 271 267 263 266 278 276 280 282 277 271 269 272 274
251 249 257 261 266 267 272 270 271 271 271 274 277 284 296 302 281 256 254 269 282 289 292 293 292 293 289 288 282 287 280 269 264 259 260 275 270 258 242 236 242 267 271
262 266 269 270 273 272 275 276 276 272 273 274 275 270 279 265 277 270 278 279 287 299 305 298 298 292 290 291 285 275 279 279 268 262 259 262 274 271 264 241 235 240 246
266 268 271 274 276 278 279 279 278 277 275 267 266 267 258 258 266 271 265 289 300 310 311 306 295 303 294 292 284 282 288 282 274 271 269 264 263 276 269 251 245 246 251
269 272 274 277 277 276 275 276 277 279 275 268 258 257 261 264 249 256 265 268 257 298 296 294 289 286 301 298 290 288 290 286 282 279 275 271 268 269 269 257 259 240 248
274 276 276 276 275 275 274 275 274 273 270 268 268 257 256 260 259 258 257 260 284 300 282 286 276 282 300 303 295 292 289 290 287 284 283 276 266 259 259 261 254 231 230
277 277 277 275 274 274 275 275 273 271 269 267 261 262 258 258 268 255 253 271 291 275 277 275 281 289 292 300 299 294 292 294 289 287 285 282 266 262 259 255 254 208 225
273 276 277 276 274 274 272 271 270 267 269 270 262 255 260 253 262 252 257 273 260 272 273 271 276 285 296 299 303 298 304 303 304 296 287 284 281 274 272 263 244 218 253
274 277 277 276 275 272 270 267 265 268 264 258 260 256 258 261 251 254 269 260 241 242 260 259 268 286 297 303 307 302 307 308 303 306 300 291 302 310 311 235 227 227 240
276 276 274 272 270 268 267 264 261 261 259 254 250 247 248 254 262 268 269 260 253 242 241 259 270 279 294 300 305 307 312 316 310 305 304 302 292 285 255 231 211 216 219
275 273 272 270 266 264 263 263 260 262 261 264 259 257 257 257 264 264 262 259 261 256 253 264 272 283 287 294 299 296 314 316 303 285 289 284 267 251 264 250 239 247 244
273 270 269 268 265 261 258 258 260 258 258 256 259 257 256 255 258 261 261 263 263 266 262 265 275 276 278 287 290 292 299 306 306 300 271 267 266 266 267 262 264 263 260
269 268 266 266 264 258 252 248 251 253 251 248 249 250 253 254 259 261 265 266 268 264 254 257 271 277 283 274 282 287 294 300 302 297 290 278 269 269 273 276 276 274 269
269 269 272 269 258 252 249 246 243 244 244 245 243 245 251 254 257 260 258 258 259 258 262 268 280 281 284 294 282 284 295 300 300 297 291 285 280 277 274 275 274 272 266
271 271 268 263 254 243 241 238 237 241 243 243 243 240 237 241 251 257 256 259 251 253 270 274 283 284 299 298 287 291 290 290 298 296 290 290 287 284 283 274 271 271 274
265 263 256 248 244 236 233 231 230 234 238 237 231 231 236 248 260 276 274 274 271 274 273 273 279 288 275 282 286 286 294 299 299 296 296 292 285 289 284 282 285 281 276
257 244 237 233 228 222 222 223 221 219 215 224 228 235 248 263 283 284 287 286 283 281 278 276 265 265 264 272 286 286 289 295 290 296 308 312 304 304 297 298 296 291 287
248 233 228 213 211 211 200 194 203 205 211 225 237 248 255 264 269 271 277 280 285 282 274 270 264 266 272 276 280 286 293 299 303 311 318 317 313 318 310 302 301 294 284
231 228 221 212 208 201 202 209 209 221 229 232 244 247 255 264 273 271 280 285 288 281 277 272 271 273 276 279 283 285 289 296 315 306 309 315 318 318 311 301 302 295 282
228 233 221 206 202 207 212 214 218 234 242 248 251 259 263 269 287 283 278 286 286 280 296 290 283 277 279 280 274 271 278 284 286 305 293 306 316 324 323 298 305 300 296